Date String (YYYY-MM-DD hh:mm:ss) UTC,Instrument flags,Ambient pressure (hPa),Sample flow (lpm),Bypass flow (lpm),Sample temperature (°C),Ambient temperature (°C),ASC tube jacket temperature (°C),LED temperature (°C),Box temperature (°C),Sample RH (%),Span deviation,Mass concentration (μg/m³),Mass concentration (μg/m³),Mass concentration (μg/m³)
DateTimeUTC,F1_M11,P_M11,Q1_M11,Q2_M11,T1_M11,T2_M11,T3_M11,T4_M11,T5_M11,U1_M11,ZSPAN_M11,X2_M11,X0_M11,X1_M11
2023-05-15 00:00:00,,0841.6,5.00,0.00,30.7,29.0,00.0,39.1,32.2,27.3,0000.0,0001.05,0001.78,0000.91
2023-05-15 00:01:00,,0841.6,5.00,0.00,30.7,29.0,00.0,39.1,32.2,27.6,0000.0,0001.02,0001.85,0000.88
2023-05-15 00:02:00,,0841.6,5.01,0.00,30.7,29.0,00.0,39.1,32.2,27.6,0000.0,0001.03,0001.90,0000.86
2023-05-15 00:03:00,,0841.6,4.99,0.00,30.7,29.0,00.0,39.1,32.1,27.6,0000.0,0001.02,0001.87,0000.85
2023-05-15 00:04:00,,0841.6,5.00,0.00,30.7,29.0,00.0,39.1,32.1,27.6,0000.0,0001.06,0001.93,0000.88
2023-05-15 00:05:00,,0841.6,5.00,0.00,30.7,29.1,00.0,39.1,32.1,27.5,0000.0,0001.09,0001.97,0000.91
2023-05-15 00:06:00,,0841.6,5.01,0.00,30.7,29.1,00.0,39.1,32.1,27.5,0000.0,0001.12,0001.96,0000.95
2023-05-15 00:07:00,,0841.6,4.99,0.00,30.7,29.1,00.0,39.1,32.1,27.6,0000.0,0001.21,0002.35,0001.01
2023-05-15 00:08:00,,0841.6,4.99,0.00,30.7,29.1,00.0,39.1,32.1,27.6,0000.0,0001.31,0002.79,0001.07
2023-05-15 00:09:00,,0841.7,5.01,0.00,30.7,29.1,00.0,39.1,32.1,27.6,0000.0,0001.38,0003.08,0001.13
2023-05-15 00:10:00,,0841.7,5.01,0.00,30.7,29.1,00.0,39.1,32.1,27.7,0000.0,0001.44,0003.67,0001.20
2023-05-15 00:11:00,,0841.7,4.99,0.00,30.7,29.1,00.0,39.1,32.1,27.8,0000.0,0001.52,0003.47,0001.26
2023-05-15 00:12:00,,0841.7,5.00,0.00,30.6,29.1,00.0,39.1,32.1,27.8,0000.0,0001.58,0003.29,0001.32
2023-05-15 00:13:00,,0841.7,5.01,0.00,30.6,29.1,00.0,39.1,32.1,27.7,0000.0,0001.62,0003.35,0001.35
2023-05-15 00:14:00,,0841.7,5.00,0.00,30.6,29.0,00.0,39.1,32.1,27.6,0000.0,0001.63,0003.35,0001.35
2023-05-15 00:15:00,,0841.7,4.99,0.00,30.6,29.0,00.0,39.1,32.1,27.3,0000.0,0001.61,0003.29,0001.33
2023-05-15 00:16:00,,0841.7,5.01,0.00,30.6,29.0,00.0,39.1,32.1,27.4,0000.0,0001.62,0003.32,0001.32
2023-05-15 00:17:00,,0841.7,5.00,0.00,30.6,29.0,00.0,39.1,32.1,27.5,0000.0,0001.61,0003.32,0001.31
2023-05-15 00:18:00,,0841.7,5.00,0.00,30.6,29.0,00.0,39.1,32.1,27.6,0000.0,0001.57,0003.06,0001.29
2023-05-15 00:19:00,,0841.8,4.99,0.00,30.6,29.0,00.0,39.1,32.1,27.5,0000.0,0001.53,0002.60,0001.27
2023-05-15 00:20:00,,0841.8,4.99,0.00,30.6,29.0,00.0,39.1,32.1,27.4,0000.0,0001.49,0002.43,0001.24
2023-05-15 00:21:00,,0841.8,5.01,0.00,30.6,29.0,00.0,39.1,32.1,27.5,0000.0,0001.47,0001.79,0001.23
2023-05-15 00:22:00,,0841.8,5.01,0.00,30.6,29.0,00.0,39.1,32.1,27.5,0000.0,0001.45,0002.20,0001.22
2023-05-15 00:23:00,,0841.8,5.00,0.00,30.6,29.0,00.0,39.1,32.1,27.5,0000.0,0001.46,0002.48,0001.22
2023-05-15 00:24:00,,0841.8,4.99,0.00,30.6,29.0,00.0,39.1,32.1,27.5,0000.0,0001.45,0002.43,0001.21
2023-05-15 00:25:00,,0841.8,5.00,0.00,30.6,29.0,00.0,39.1,32.1,27.5,0000.0,0001.46,0002.45,0001.22
2023-05-15 00:26:00,,0841.8,5.01,0.00,30.6,29.0,00.0,39.1,32.1,27.5,0000.0,0001.46,0002.46,0001.24
2023-05-15 00:27:00,,0841.8,5.00,0.00,30.6,29.0,00.0,39.1,32.1,27.5,0000.0,0001.50,0002.56,0001.26
2023-05-15 00:28:00,,0841.8,4.99,0.00,30.6,29.0,00.0,39.1,32.1,27.5,0000.0,0001.52,0002.60,0001.28
2023-05-15 00:29:00,,0841.8,5.00,0.00,30.6,29.0,00.0,39.0,32.1,27.3,0000.0,0001.56,0002.73,0001.29
2023-05-15 00:30:00,,0841.8,4.99,0.00,30.6,29.0,00.0,39.0,32.1,27.3,0000.0,0001.58,0002.85,0001.28
2023-05-15 00:31:00,,0841.8,5.01,0.00,30.6,29.0,00.0,39.0,32.1,27.3,0000.0,0001.61,0002.92,0001.29
2023-05-15 00:32:00,,0841.8,5.00,0.00,30.6,29.0,00.0,39.0,32.1,27.3,0000.0,0001.61,0002.98,0001.29
2023-05-15 00:33:00,,0841.8,4.99,0.00,30.6,29.0,00.0,39.0,32.1,27.5,0000.0,0001.62,0002.84,0001.28
2023-05-15 00:34:00,,0841.8,5.01,0.00,30.6,29.0,00.0,39.0,32.1,27.6,0000.0,0001.59,0002.32,0001.26
2023-05-15 00:35:00,,0841.8,5.01,0.00,30.6,29.0,00.0,39.0,32.1,27.7,0000.0,0001.52,0002.22,0001.23
2023-05-15 00:36:00,,0841.8,5.00,0.00,30.6,29.0,00.0,39.0,32.1,27.6,0000.0,0001.48,0002.13,0001.20
2023-05-15 00:37:00,,0841.8,4.99,0.00,30.6,29.0,00.0,39.0,32.1,27.5,0000.0,0001.48,0002.15,0001.19
2023-05-15 00:38:00,,0841.8,4.98,0.00,30.6,29.0,00.0,39.0,32.1,27.3,0000.0,0001.43,0002.06,0001.15
2023-05-15 00:39:00,,0841.8,5.00,0.00,30.6,29.0,00.0,39.0,32.1,27.3,0000.0,0001.37,0001.97,0001.11
2023-05-15 00:40:00,,0841.8,5.01,0.00,30.6,28.9,00.0,39.0,32.1,27.3,0000.0,0001.30,0001.83,0001.08
2023-05-15 00:41:00,,0841.9,5.01,0.00,30.6,28.9,00.0,39.0,32.0,27.3,0000.0,0001.25,0001.63,0001.05
2023-05-15 00:42:00,,0841.9,4.99,0.00,30.6,28.9,00.0,39.0,32.0,27.3,0000.0,0001.19,0001.54,0001.02
2023-05-15 00:43:00,,0841.9,4.99,0.00,30.6,28.9,00.0,39.0,32.1,27.3,0000.0,0001.15,0001.45,0001.00
2023-05-15 00:44:00,,0842.0,5.01,0.00,30.5,28.9,00.0,39.0,32.1,27.4,0000.0,0001.13,0001.30,0000.96
2023-05-15 00:45:00,,0841.9,5.01,0.00,30.6,28.9,00.0,39.0,32.1,27.4,0000.0,0001.09,0001.26,0000.93
2023-05-15 00:46:00,,0841.9,4.99,0.00,30.6,28.9,00.0,39.0,32.0,27.4,0000.0,0001.09,0001.26,0000.92
2023-05-15 00:47:00,,0842.0,4.99,0.00,30.5,28.9,00.0,39.0,32.0,27.4,0000.0,0001.07,0001.23,0000.90
2023-05-15 00:48:00,,0842.0,5.01,0.00,30.5,28.9,00.0,39.0,32.0,27.4,0000.0,0001.02,0001.16,0000.88
2023-05-15 00:49:00,,0842.0,5.01,0.00,30.5,28.9,00.0,39.0,32.1,27.4,0000.0,0001.02,0001.20,0000.88
2023-05-15 00:50:00,,0842.0,5.00,0.00,30.5,28.9,00.0,39.0,32.0,27.3,0000.0,0001.01,0001.21,0000.88
2023-05-15 00:51:00,,0841.9,4.99,0.00,30.5,28.9,00.0,39.0,32.0,27.1,0000.0,0000.99,0001.21,0000.86
2023-05-15 00:52:00,,0842.0,5.00,0.00,30.5,28.9,00.0,39.0,32.0,27.0,0000.0,0000.98,0001.20,0000.83
2023-05-15 00:53:00,,0842.0,5.01,0.00,30.5,28.9,00.0,39.0,32.0,26.9,0000.0,0000.96,0001.20,0000.81
2023-05-15 00:54:00,,0842.0,4.99,0.00,30.5,28.8,00.0,39.0,32.0,26.9,0000.0,0000.93,0001.17,0000.79
2023-05-15 00:55:00,,0842.0,4.99,0.00,30.5,28.8,00.0,39.0,32.0,26.9,0000.0,0000.87,0001.11,0000.75
2023-05-15 00:56:00,,0842.0,5.01,0.00,30.5,28.8,00.0,39.0,32.0,26.9,0000.0,0000.84,0001.10,0000.72
2023-05-15 00:57:00,,0842.0,5.01,0.00,30.5,28.8,00.0,39.0,32.0,26.9,0000.0,0000.81,0001.05,0000.70
2023-05-15 00:58:00,,0842.1,4.99,0.00,30.5,28.8,00.0,38.9,32.0,27.0,0000.0,0000.79,0001.05,0000.68
2023-05-15 00:59:00,,0842.0,5.01,0.00,30.5,28.8,00.0,38.9,32.0,27.1,0000.0,0000.79,0001.06,0000.67
